This is the latest recevied weather packets stored in our database for station/object TONGUE. If no packets are shown the sender has not sent any weather packets the latest 1 day(s).
| Time | Temp. | Humidity | Pressure | Rain* | Wind** | Luminosity | Snow |
|---|---|---|---|---|---|---|---|
| 1778037003 | 13.33° C | 94% | 0 hPa | - | 0 m/s | - | - |
| 1778036403 | 12.78° C | 93% | 0 hPa | - | 0.89 m/s, 257° | - | - |
| 1778035803 | 13.33° C | 93% | 0 hPa | - | 0.89 m/s, 287° | - | - |
| 1778035203 | 13.33° C | 92% | 0 hPa | - | 0.45 m/s, 269° | - | - |
| 1778034604 | 13.89° C | 91% | 0 hPa | - | 0 m/s | - | - |
| 1778034002 | 13.33° C | 91% | 0 hPa | - | 0.45 m/s, 232° | - | - |
| 1778033403 | 13.33° C | 91% | 0 hPa | - | 0 m/s | - | - |
| 1778032803 | 13.89° C | 89% | 0 hPa | - | 0.45 m/s, 180° | - | - |
| 1778032203 | 13.89° C | 88% | 0 hPa | - | 0.45 m/s, 170° | - | - |
| 1778031603 | 13.89° C | 87% | 0 hPa | - | 0 m/s | - | - |
| 1778031003 | 14.44° C | 87% | 0 hPa | - | 0 m/s | - | - |
| 1778030402 | 14.44° C | 86% | 0 hPa | - | 0.45 m/s, 275° | - | - |
| 1778029802 | 13.89° C | 88% | 0 hPa | - | 0.89 m/s, 285° | - | - |
| 1778029203 | 13.89° C | 88% | 0 hPa | - | 0.89 m/s, 233° | - | - |
| 1778028603 | 13.89° C | 89% | 0 hPa | - | 0.45 m/s, 268° | - | - |
| 1778028003 | 13.89° C | 89% | 0 hPa | - | 1.34 m/s, 293° | - | - |
| 1778027404 | 13.89° C | 89% | 0 hPa | - | 1.34 m/s, 298° | - | - |
| 1778026803 | 13.89° C | 90% | 0 hPa | - | 1.34 m/s, 300° | - | - |
| 1778026202 | 13.89° C | 87% | 0 hPa | - | 0.89 m/s, 303° | - | - |
| 1778025603 | 13.89° C | 84% | 0 hPa | - | 0.89 m/s, 290° | - | - |
| 1778025003 | 13.89° C | 86% | 0 hPa | - | 0.89 m/s, 291° | - | - |
| 1778024403 | 13.89° C | 87% | 0 hPa | - | 1.79 m/s, 306° | - | - |
| 1778023804 | 13.89° C | 87% | 0 hPa | - | 0 m/s | - | - |
| 1778023202 | 13.89° C | 86% | 0 hPa | - | 1.34 m/s, 303° | - | - |
| 1778022602 | 13.89° C | 88% | 0 hPa | - | 0.89 m/s, 259° | - | - |
* Rain since midnight (hover to see other rain measurements)
** Current wind speed in m/s (hover to see current wind gust speed)